TimeEDT,TemperatureF,Dew PointF,Humidity,Sea Level PressureIn,VisibilityMPH,Wind Direction,Wind SpeedMPH,Gust SpeedMPH,PrecipitationIn,Events,Conditions,WindDirDegrees,DateUTC
12:15 AM,32.5,27.1,80,30.00,10.0,Calm,Calm,-,N/A,,Clear,0,2013-04-05 04:15:00
12:35 AM,32.5,27.7,82,30.00,10.0,Calm,Calm,-,N/A,,Clear,0,2013-04-05 04:35:00
12:55 AM,32.5,28.6,85,30.00,10.0,Calm,Calm,-,N/A,,Clear,0,2013-04-05 04:55:00
1:15 AM,32.5,28.8,86,30.00,10.0,Calm,Calm,-,N/A,,Clear,0,2013-04-05 05:15:00
1:35 AM,32.5,29.7,89,30.00,10.0,Calm,Calm,-,N/A,,Clear,0,2013-04-05 05:35:00
1:55 AM,32.5,29.3,88,30.00,10.0,Calm,Calm,-,N/A,,Clear,0,2013-04-05 05:55:00
2:15 AM,30.6,27.5,88,30.00,10.0,Calm,Calm,-,N/A,,Clear,0,2013-04-05 06:15:00
2:35 AM,30.2,27.3,89,30.00,10.0,Calm,Calm,-,N/A,,Clear,0,2013-04-05 06:35:00
2:55 AM,30.4,27.0,87,30.00,10.0,Calm,Calm,-,N/A,,Clear,0,2013-04-05 06:55:00
3:15 AM,30.2,27.1,88,30.00,10.0,Calm,Calm,-,N/A,,Clear,0,2013-04-05 07:15:00
3:35 AM,30.0,27.1,89,30.00,10.0,Calm,Calm,-,N/A,,Clear,0,2013-04-05 07:35:00
3:55 AM,29.8,27.1,90,30.00,10.0,Calm,Calm,-,N/A,,Clear,0,2013-04-05 07:55:00
4:15 AM,29.1,26.6,90,30.00,10.0,Calm,Calm,-,N/A,,Clear,0,2013-04-05 08:15:00
4:35 AM,28.2,25.3,89,30.00,10.0,Calm,Calm,-,N/A,,Clear,0,2013-04-05 08:35:00
4:55 AM,27.9,25.5,91,30.01,10.0,Calm,Calm,-,N/A,,Clear,0,2013-04-05 08:55:00
5:15 AM,27.9,25.5,91,30.01,10.0,Calm,Calm,-,N/A,,Clear,0,2013-04-05 09:15:00
5:35 AM,28.4,26.2,92,30.02,10.0,Calm,Calm,-,N/A,,Clear,0,2013-04-05 09:35:00
5:55 AM,27.9,25.7,92,30.02,10.0,Calm,Calm,-,N/A,,Clear,0,2013-04-05 09:55:00
6:15 AM,27.9,26.2,94,30.02,10.0,Calm,Calm,-,N/A,,Clear,0,2013-04-05 10:15:00
6:35 AM,27.9,26.1,93,30.03,10.0,Calm,Calm,-,N/A,,Clear,0,2013-04-05 10:35:00
6:55 AM,27.9,26.6,95,30.03,10.0,Calm,Calm,-,N/A,,Clear,0,2013-04-05 10:55:00
7:15 AM,27.9,26.6,95,30.03,10.0,Calm,Calm,-,N/A,,Clear,0,2013-04-05 11:15:00
7:35 AM,27.9,27.1,97,30.05,10.0,Calm,Calm,-,N/A,,Clear,0,2013-04-05 11:35:00
7:55 AM,28.8,27.3,94,30.05,10.0,Calm,Calm,-,N/A,,Clear,0,2013-04-05 11:55:00
8:15 AM,30.2,29.1,96,30.05,10.0,Calm,Calm,-,N/A,,Clear,0,2013-04-05 12:15:00
8:35 AM,32.5,31.1,94,30.06,10.0,WSW,3.5,-,N/A,,Clear,240,2013-04-05 12:35:00
8:55 AM,35.2,31.6,87,30.06,10.0,SW,3.5,-,N/A,,Clear,230,2013-04-05 12:55:00
9:15 AM,37.8,31.6,79,30.06,10.0,Calm,Calm,-,N/A,,Clear,0,2013-04-05 13:15:00
9:35 AM,40.3,31.6,71,30.06,10.0,Calm,Calm,-,N/A,,Clear,0,2013-04-05 13:35:00
9:55 AM,43.7,32.9,66,30.06,10.0,Calm,Calm,-,N/A,,Scattered Clouds,0,2013-04-05 13:55:00
10:15 AM,47.7,35.1,62,30.06,10.0,Calm,Calm,-,N/A,,Clear,0,2013-04-05 14:15:00
10:35 AM,49.1,34.2,56,30.06,10.0,NE,4.6,-,N/A,,Clear,50,2013-04-05 14:35:00
10:55 AM,52.7,34.7,50,30.06,10.0,NE,4.6,-,N/A,,Clear,50,2013-04-05 14:55:00
11:15 AM,52.7,33.4,48,30.06,10.0,Calm,Calm,-,N/A,,Clear,0,2013-04-05 15:15:00
11:35 AM,55.4,35.6,47,30.06,10.0,North,8.1,-,N/A,,Clear,350,2013-04-05 15:35:00
11:55 AM,56.1,36.3,47,30.06,10.0,North,8.1,-,N/A,,Clear,360,2013-04-05 15:55:00
12:15 PM,57.0,37.4,48,30.06,10.0,NW,9.2,-,N/A,,Clear,310,2013-04-05 16:15:00
12:35 PM,57.7,37.6,47,30.07,10.0,NW,12.7,-,N/A,,Clear,310,2013-04-05 16:35:00
12:55 PM,57.7,37.0,46,30.07,10.0,North,11.5,19.6,N/A,,Clear,360,2013-04-05 16:55:00
1:15 PM,57.7,36.1,44,30.07,10.0,North,10.4,19.6,N/A,,Clear,360,2013-04-05 17:15:00
1:35 PM,57.7,34.3,41,30.07,10.0,NNE,9.2,18.4,N/A,,Clear,20,2013-04-05 17:35:00
1:55 PM,57.9,33.6,40,30.07,10.0,NNW,10.4,16.1,N/A,,Clear,340,2013-04-05 17:55:00
2:15 PM,57.7,32.4,38,30.07,10.0,North,12.7,16.1,N/A,,Clear,360,2013-04-05 18:15:00
2:35 PM,58.5,31.8,37,30.07,10.0,North,12.7,16.1,N/A,,Clear,360,2013-04-05 18:35:00
2:55 PM,58.3,31.6,36,30.07,10.0,NNE,17.3,21.9,N/A,,Clear,20,2013-04-05 18:55:00
3:15 PM,57.7,32.0,38,30.06,10.0,NNE,11.5,20.7,N/A,,Clear,20,2013-04-05 19:15:00
3:35 PM,57.9,31.6,37,30.06,10.0,NNE,6.9,18.4,N/A,,Clear,30,2013-04-05 19:35:00
3:55 PM,57.7,31.6,37,30.06,10.0,NNE,11.5,18.4,N/A,,Clear,30,2013-04-05 19:55:00
4:15 PM,58.5,30.7,35,30.06,10.0,NNW,9.2,-,N/A,,Clear,340,2013-04-05 20:15:00
4:35 PM,57.7,31.1,36,30.06,10.0,NNW,6.9,18.4,N/A,,Clear,330,2013-04-05 20:35:00
4:55 PM,58.1,31.1,36,30.06,10.0,NE,11.5,18.4,N/A,,Clear,40,2013-04-05 20:55:00
5:15 PM,57.7,32.0,38,30.06,10.0,North,9.2,18.4,N/A,,Clear,350,2013-04-05 21:15:00
5:35 PM,57.7,32.2,38,30.06,10.0,North,10.4,16.1,N/A,,Clear,350,2013-04-05 21:35:00
5:55 PM,57.7,32.0,38,30.07,10.0,NNE,11.5,-,N/A,,Clear,20,2013-04-05 21:55:00
6:15 PM,57.7,31.6,37,30.08,10.0,North,9.2,-,N/A,,Clear,10,2013-04-05 22:15:00
6:35 PM,55.4,30.2,38,30.08,10.0,North,8.1,-,N/A,,Clear,360,2013-04-05 22:35:00
6:55 PM,55.4,30.9,39,30.08,10.0,North,8.1,-,N/A,,Clear,10,2013-04-05 22:55:00
7:15 PM,55.4,31.8,41,30.09,10.0,North,9.2,-,N/A,,Clear,360,2013-04-05 23:15:00
7:35 PM,52.7,31.5,44,30.09,10.0,North,5.8,-,N/A,,Clear,360,2013-04-05 23:35:00
7:55 PM,52.7,32.0,45,30.10,10.0,North,4.6,-,N/A,,Clear,350,2013-04-05 23:55:00
8:15 PM,52.3,32.2,46,30.11,10.0,North,5.8,-,N/A,,Clear,10,2013-04-06 00:15:00
8:35 PM,50.2,30.9,48,30.12,10.0,North,3.5,-,N/A,,Clear,350,2013-04-06 00:35:00
8:55 PM,47.7,30.6,52,30.13,7.0,North,4.6,-,N/A,,Clear,360,2013-04-06 00:55:00
9:15 PM,47.7,31.1,53,30.14,10.0,North,4.6,-,N/A,,Clear,360,2013-04-06 01:15:00
9:35 PM,47.7,31.6,54,30.15,10.0,North,3.5,-,N/A,,Clear,360,2013-04-06 01:35:00
9:55 PM,47.7,31.6,54,30.15,10.0,Calm,Calm,-,N/A,,Clear,0,2013-04-06 01:55:00
10:15 PM,46.2,31.1,56,30.15,10.0,Calm,Calm,-,N/A,,Clear,0,2013-04-06 02:15:00
10:35 PM,46.0,30.2,54,30.16,10.0,Calm,Calm,-,N/A,,Clear,0,2013-04-06 02:35:00
10:55 PM,42.6,31.8,66,30.16,10.0,Calm,Calm,-,N/A,,Clear,0,2013-04-06 02:55:00
11:15 PM,38.8,31.8,76,30.16,10.0,Calm,Calm,-,N/A,,Clear,0,2013-04-06 03:15:00
11:35 PM,37.6,31.3,78,30.16,10.0,North,3.5,-,N/A,,Clear,360,2013-04-06 03:35:00
11:55 PM,35.2,30.7,84,30.16,10.0,Calm,Calm,-,N/A,,Clear,0,2013-04-06 03:55:00